Location: Maiden
(35.5760°N, 81.2120°W)
Time: 23:49:50
(UTC-04:00)

Cosmos 2278 Rocket - Pass Details

Date: 14 June 2018
Orbit: 842 x 844 km, 71.0° (Epoch: 19 October)

Event Time Altitude Azimuth Distance (km) Brightness Sun altitude
Exits shadow 23:47:53 21° 73° (ENE) 1,828 3.8 -26.8°
Drops below altitude 10° 23:50:29 10° 49° (NE) 2,468 4.8 -27.0°
Sets 23:53:20 0° 36° (NE) 3,407 5.7 -27.2°
